THORAD AGENA D DEB, 9666

Orbit data source: Space-Track

THORAD AGENA D DEB, 9666 is space debris in SSO originally from a launch on Wed, 08 Apr 1970 UTC launched from the Air Force Western Test Range (AFWTR). Debris objects in space refer to the collection of defunct objects orbiting the Earth. Examples of debris include non-operational satellites, rocket bodies, and fragments generated from explosions, collisions, or faulty payload assembly.

Loading next visibility...
Identifier
9666, 1970-025NK
Orbit
SSO
Country
Flag of USUS
Related business
Manufacturer
Unknown
Mission
Spacecraft
Bus & Motor
Unknown
Mass
Unknown
Launch date (UTC)
1970-04-08 (56 years ago)
Launch vehicle
Unknown
Launch site
Air Force Western Test Range (AFWTR)
Object type
Payload
Rocket body
Debris
Shape & HBR
Unknown shape, 0.1 m
Radar Cross Section
Small (<0.1 m²)

Expand to show TLE details & history
Last TLE update: 17 hours ago

TLE from 17 hours ago
0 THORAD AGENA D DEB
1 09666U 70025NK  26034.89389258  .00002490  00000-0  28128-2 0  9996
2 09666  99.2731   3.8622 0112522 293.3450  90.6714 13.68820267734633
Epoch: 2026-02-03T21:27Z
TLE epoch observation values (Epoch: 2026-02-03T21:27:12.318Z)
Latitude
24.98053°
Longitude
-96.3474°
Altitude
1,008.664 km
Speed
7.349 km/s
True Right ascension
23h 58m 05s
True Declination
24° 51' 13"
Sunlit
Object was in daylight at epoch
Visualization orbit readout
Latitude
Unknown
Longitude
Unknown
Altitude
Unknown
Speed
Unknown
Apparent Right ascension
Unknown
Apparent Declination
Unknown
Sunlit
N/A
Visualization observer readout
Local Sidereal Time
16:47:47
Azimuth
Unknown
Elevation
Unknown
Doppler factor
Unknown
Orbital elements
Apogee altitude
1,084.096 km
Perigee altitude
918.031 km
Semi-major axis
7,379.201 km
Eccentricity
0.01125
Inclination
99.2731°
RAAN
3.8622°
Arg. of periapsis
293.345°
True anomaly
91.9604°
Mean anomaly
90.6714°
Eccentric anomaly
91.31593°
Mean motion
3.42396 °/min
Orbital period
105.14 mins
BSTAR
0.0028128
Loading maneuver chart data...
Computing Atmospheric mass density...

Documentation

Showing up to 5 results
|